Regional Weather Roundup
Issued by NWS

Home | Current Version | Previous Version | Graphics & Text | Print | Product List | Glossary On
Versions: 1 2 3 4 5 6 7 8 9 10 11 12 13 14 15 16 17 18 19 20 21 22 23 24 25 26 27 28 29 30 31 32 33 34 35 36 37 38 39 40 41 42 43 44 45 46 47 48 49 50
000
ASUS43 KMKX 291200
RWRWI

WISCONSIN REGIONAL WEATHER ROUNDUP
NATIONAL WEATHER SERVICE MILWAUKEE/SULLIVAN WI
700 AM CDT FRI AUG 29 2014

NOTE: "FAIR" INDICATES FEW OR NO CLOUDS BELOW 12,000 FEET WITH NO
SIGNIFICANT WEATHER AND/OR OBSTRUCTIONS TO VISIBILITY.

WIZ001-002-006>008-014>016-023>028-291300-
NORTHWEST WISCONSIN

CITY           SKY/WX    TMP DP  RH WIND       PRES   REMARKS
SUPERIOR ARPT  LGT RAIN  62  62  99 CALM      29.84F
ASHLAND        CLOUDY    62  58  86 VRB3      29.88F
6HR MIN TEMP:  58; 6HR MAX TEMP:  64;

HAYWARD        CLOUDY    60  59  96 VRB3      29.87F
6HR MIN TEMP:  60; 6HR MAX TEMP:  65; 6HR PCP:  0.01;

SIREN          HVY RAIN  62  61  97 CALM      29.84R
RICE LAKE      CLOUDY    59  57  94 SE7       29.87S
6HR MIN TEMP:  59; 6HR MAX TEMP:  64;

LADYSMITH      RAIN      59  58  96 E7        29.90F
EAU CLAIRE     NOT AVBL
MENOMONIE      LGT RAIN  61  60  99 SE8       29.85F
NEW RICHMOND   CLOUDY    63  63  99 SE5       29.84S
OSCEOLA        CLOUDY    65  65 100 SE6       29.85S
$$

WIZ003>005-009-010-017-018-291300-
NORTH CENTRAL WISCONSIN

CITY           SKY/WX    TMP DP  RH WIND       PRES   REMARKS
WOODRUFF       DRIZZLE   59  58  94 SE5       29.95F
RHINELANDER    LGT RAIN  57  56  96 SE7       29.97S
6HR MIN TEMP:  56; 6HR MAX TEMP:  59; 6HR PCP:  0.12;

EAGLE RIVER    MIX PCPN  57  57 100 S7        29.96F
LAND O LAKES   CLOUDY    58  56  94 S6        29.97F FOG
PHILLIPS       RAIN      57  56  99 SE5       29.92F
TOMAHAWK       LGT RAIN  57  56  96 SE5       29.96S
MEDFORD        LGT RAIN  57  57  99 SE7       29.93F
MERRILL        DRIZZLE   58  58 100 E5        29.95F
$$

WIZ029-030-035-036-043>047-291300-
CENTRAL WISCONSIN

CITY           SKY/WX    TMP DP  RH WIND       PRES   REMARKS
WAUSAU         CLOUDY    59  58  96 SE7       29.94S FOG
6HR MIN TEMP:  57; 6HR MAX TEMP:  59; 6HR PCP:  0.17;

MOSINEE        CLOUDY    59  59 100 SE6       29.96F FOG
MARSHFIELD     CLOUDY    61  59  93 SE7       29.92F FOG
6HR MIN TEMP:  57; 6HR MAX TEMP:  61; 6HR PCP:  0.07;

STEVENS POINT  CLOUDY    59  58  98 E3        29.96S FOG
WAUPACA        CLOUDY    63  61  95 NE3       29.96F FOG
WAUTOMA        NOT AVBL
WISC RAPIDS    CLOUDY    62  60  93 E3        29.95S
6HR MIN TEMP:  57; 6HR MAX TEMP:  62; 6HR PCP:  0.04;

CAMP DOUGLAS   NOT AVBL
$$

WIZ011>013-019>022-031-037>040-048>050-291300-
NORTHEAST WISCONSIN

CITY           SKY/WX    TMP DP  RH WIND       PRES   REMARKS
ANTIGO         CLOUDY    57  57 100 SE6       29.98S FOG
STURGEON BAY   CLOUDY    61  57  88 E9        29.99R
6HR MIN TEMP:  59; 6HR MAX TEMP:  63;

GREEN BAY      CLOUDY    63  62  97 E3        29.96F
6HR MIN TEMP:  61; 6HR MAX TEMP:  63; 6HR PCP:  0.45;

MANITOWOC      CLOUDY    66  64  94 S13       29.97S
APPLETON       CLOUDY    63  63 100 VRB5      29.96S
CLINTONVILLE   CLOUDY    61  59  94 CALM      29.96S FOG
OSHKOSH        CLOUDY    65  63  93 CALM      29.95S
6HR MIN TEMP:  62; 6HR MAX TEMP:  65; 6HR PCP:  0.18;

$$

WIZ032>034-041-042-053>061-291300-
SOUTHWEST WISCONSIN

CITY           SKY/WX    TMP DP  RH WIND       PRES   REMARKS
LA CROSSE      CLOUDY    66  64  93 E7        29.88S
6HR MIN TEMP:  66; 6HR MAX TEMP:  67; 6HR PCP:  0.01;

SPARTA         CLOUDY    63  61  94 E3        29.92R
VIROQUA        PTSUNNY   65  65 100 CALM      29.93R
BOSCOBEL       MOCLDY    69  66  90 CALM      29.90R FOG
6HR MIN TEMP:  67; 6HR MAX TEMP:  70; 6HR PCP:  0.35;

PRAIRIE DU CHI MOCLDY    69  66  91 CALM      29.89R
PLATTEVILLE    FAIR      66  65  97 CALM      29.94S
$$

WIZ056-057-062-063-064-067-068-291300-
SOUTH CENTRAL WISCONSIN

CITY           SKY/WX    TMP DP  RH WIND       PRES   REMARKS
BARABOO/DELLS  CLOUDY    65  63  93 S5        29.93S FOG
LONE ROCK      NOT AVBL
WATERTOWN      PTCLDY    64  64 100 CALM      29.95S FOG
MADISON        CLOUDY    67  64  90 S7        29.96R FOG
6HR MIN TEMP:  65; 6HR MAX TEMP:  67;

MIDDLETON      CLOUDY    67  66  98 W3        29.97R
MONROE         CLOUDY    66  64  94 SE8G14    29.95S FOG
JANESVILLE     NOT AVBL
$$

WIZ051-052-058>065-066-070>072-291300-
SOUTHEAST WISCONSIN

CITY           SKY/WX    TMP DP  RH WIND       PRES   REMARKS
MILWAUKEE      MOCLDY    70  66  87 S8        29.97S
6HR MIN TEMP:  68; 6HR MAX TEMP:  70;

WAUKESHA       PTCLDY    66  64  94 S5        29.98S FOG
MILWAUKEE/TIMM MOCLDY    68  63  83 S3        29.98S
RACINE         MOCLDY    71  67  87 S10       29.99S
6HR MIN TEMP:  70; 6HR MAX TEMP:  72;

BURLINGTON       N/A     61  61 100 CALM      29.97S FOG
KENOSHA        MOCLDY    70  66  87 S8        29.98S
6HR MIN TEMP:  69; 6HR MAX TEMP:  71;

FOND DU LAC    CLOUDY    67  63  87 S7        29.96R
6HR MIN TEMP:  63; 6HR MAX TEMP:  67; 6HR PCP:  0.02;

SHEBOYGAN      CLOUDY    68  65  90 S9        29.96S
6HR MIN TEMP:  64; 6HR MAX TEMP:  68; 6HR PCP:  0.01;

WEST BEND      CLOUDY    64  63  94 S5        29.97S FOG
JUNEAU         MOCLDY    65  64  94 SE7       29.97R
$$

LSZ147-162-291300-
LAKE SUPERIOR

STATION/POSITION TIME  TEMP    WIND        PRES    WAVE
                       AIR SEA DIR/SP/G            HT/PER
                 (UTC) (F)     (DEG/KT/KT) (MB)    (FT/S)
W MID LAKE BUOY  1050   59 56  140/  6/  6 1012.7F   1
DEVILS ISLAND    1100   63     150/  6/  8 1012.2F
PORT WING        1100   65     130/  1/  3 1011.5
SAXON HARBOR     1100   64     180/  6/ 12 1012.2F
$$

LMZ867-665-643>646-291300-
LAKE MICHIGAN

STATION/POSITION TIME  TEMP    WIND        PRES    WAVE
                       AIR SEA DIR/SP/G            HT/PER
                 (UTC) (F)     (DEG/KT/KT) (MB)    (FT/S)
N MID LAKE BUOY  1050   63 65  180/ 16/ 19 1016.4F   1/ 3
NORTHPORT PIER   1100   61     150/  8/ 12 1015.9F
SISTER BAY       1111   59     100/  2/  5   N/A
KEWAUNEE LAKESHO 1100   64     120/  8/ 11 1014.2F
SHEBOYGAN LAKESH 1100   67 69  160/ 17/ 19 1014.6F
ATWATER BUOY     1100   70     160/ 12/ 14 1015.6F
MILWAUKEE LAKESH 1100   70     160/  9/ 10   N/A
S MID LAKE BUOY  1050   69 69  150/ 16/ 19 1015.4    2/ 4
KENOSHA   LAKESH 1100   72     170/ 15/ 17 1014.6S
$$

TC  - TEMPERATURE IN CELSIUS
VSB - VISIBILITY IN STATUTE MILES
WCI - WIND CHILL INDEX
HX  - HEAT INDEX



USA.gov is the U.S. government's official web portal to all federal, state and local government web resources and services.